Orbital Elements at Epoch 2459200.5 (2020-Dec-17.0) TDB
Reference: JPL 16 (heliocentric ecliptic J2000)
Element | Value | Uncertainty (1-sigma) | Units |
e | .1122974606705192 | 3.0438e-08 | |
a | 2.509164718011353 | 1.2516e-08 | au |
q | 2.227391891774618 | 7.3004e-08 | au |
i | 5.646567881104893 | 7.3223e-06 | deg |
node | 2.360043122439349 | 4.6758e-05 | deg |
peri | 248.3645313926438 | 6.2586e-05 | deg |
M | 187.8561774997791 | 4.0531e-05 | deg |
tp | 2459894.694433258765 (2022-Nov-11.19443326) | 0.00016411 | TDB |
period | 1451.751171453362 3.97 | 1.0862e-05 2.974e-08 | d yr |
n | .2479763798913284 | 1.8554e-09 | deg/d |
Q | 2.790937544248087 | 1.3922e-08 | au |
|
| | Orbit Determination Parameters
Additional Information
|